Riverside March, CA

11:37 PM PST on February 21, 2018 (GMT -0800)
March Air Reserve Base

Weather History for KRIV - January, 2014

Change the Weather History Date:

Friday, January 24, 2014

  Actual Average Record
Temperature  
Mean Temperature 65 °F -  
Max Temperature 72 °F 63 °F 80 °F (2003)
Min Temperature 58 °F 39 °F 28 °F (2011)
Growing Degree Days 15 (Base 50)    
Moisture  
Dew Point 17 °F    
Average Humidity 16    
Maximum Humidity 27    
Minimum Humidity 12    
Precipitation  
Precipitation 0.00 in - - ()
Sea Level Pressure  
Sea Level Pressure 30.17 in    
Wind  
Wind Speed 6 mph (NNE)    
Max Wind Speed 16 mph    
Max Gust Speed -    
Visibility 10 miles    
Events Rain    
Averages and records for this station are not official NWS values.
T = Trace of Precipitation, MM = Missing Value Source: NWS Daily Summary

Daily Weather History Graph

Daily Weather History Graph

Search for Another Location

Airport or City:

Trip Planner

Search our weather history database for the weather conditions in past years. The results will help you decide how hot, cold, wet, or windy it might be!

Date:

Astronomy

Jan. 24, 2014 Rise Set
Actual Time 6:50 AM PST 5:12 PM PST
Civil Twilight 6:24 AM PST 5:38 PM PST
Nautical Twilight 5:53 AM PST 6:08 PM PST
Astronomical Twilight 5:24 AM PST 6:38 PM PST
Moon 12:26 AM PST (1/24) 11:31 AM PST (1/24)
Length of Visible Light 11h 14m
Length of Day
10h 21m
Last Quarter, 43% of the Moon is Illuminated
Jan 24
Last Quarter
Jan 30
New
Feb 6
First Quarter
Feb 14
Full
Feb 22
Last Quarter

Hourly Weather History & Observations

Time (PST) Temp. Dew Point Humidity Pressure Visibility Wind Dir Wind Speed Gust Speed Precip Events Conditions
12:58 AM 62.8 °F 14.7 °F 15% 30.09 in 10.0 mi North 3.5 mph - N/A   Clear
1:58 AM 62.2 °F 15.1 °F 16% 30.10 in 10.0 mi NNE 3.5 mph - N/A   Clear
2:58 AM 59.0 °F 16.5 °F 19% 30.11 in 10.0 mi North 6.9 mph - N/A   Overcast
3:58 AM 58.8 °F 15.8 °F 19% 30.11 in 10.0 mi NE 4.6 mph - N/A   Clear
4:58 AM 61.2 °F 15.4 °F 17% 30.12 in 10.0 mi NNE 5.8 mph - N/A   Clear
5:58 AM 63.9 °F 14.7 °F 15% 30.14 in 10.0 mi North 4.6 mph - N/A   Clear
6:58 AM 62.8 °F 15.3 °F 16% 30.16 in 10.0 mi NNE 6.9 mph - N/A   Clear
7:58 AM 61.9 °F 16.0 °F 17% 30.18 in 10.0 mi NE 8.1 mph - N/A   Partly Cloudy
8:58 AM 64.8 °F 17.2 °F 16% 30.22 in 10.0 mi NE 5.8 mph - N/A   Clear
9:58 AM 68.7 °F 16.3 °F 13% 30.22 in 10.0 mi Variable 4.6 mph - N/A   Partly Cloudy
10:58 AM 70.3 °F 17.6 °F 13% 30.22 in 10.0 mi East 16.1 mph - N/A   Scattered Clouds
11:58 AM 70.7 °F 17.6 °F 13% 30.20 in 10.0 mi East 11.5 mph - N/A   Partly Cloudy
12:58 PM 72.9 °F 16.5 °F 12% 30.18 in 10.0 mi East 11.5 mph - N/A   Scattered Clouds
1:58 PM 72.5 °F 16.7 °F 12% 30.17 in 10.0 mi ESE 10.4 mph - N/A   Mostly Cloudy
2:58 PM 72.1 °F 17.2 °F 12% 30.16 in 10.0 mi NE 8.1 mph - N/A   Overcast
3:58 PM 70.3 °F 17.6 °F 13% 30.17 in 10.0 mi NE 9.2 mph - N/A   Overcast
4:58 PM 68.0 °F 19.0 °F 15% 30.18 in 10.0 mi North 8.1 mph - N/A   Mostly Cloudy
5:58 PM 66.9 °F 17.8 °F 15% 30.20 in 10.0 mi NE 9.2 mph - N/A   Mostly Cloudy
6:58 PM 66.0 °F 17.4 °F 15% 30.20 in 10.0 mi North 6.9 mph - N/A   Clear
7:58 PM 63.9 °F 18.5 °F 17% 30.21 in 10.0 mi NW 5.8 mph - N/A   Mostly Cloudy
8:58 PM 64.4 °F 17.6 °F 16% 30.20 in 10.0 mi NNE 10.4 mph - N/A   Mostly Cloudy
9:58 PM 63.3 °F 18.9 °F 18% 30.20 in 10.0 mi North 6.9 mph - N/A   Scattered Clouds
10:58 PM 59.2 °F 20.7 °F 23% 30.20 in 10.0 mi North 2.3 mph - N/A   Overcast
11:48 PM 59.0 °F 24.8 °F 27% 30.21 in 10.0 mi NNW 5.8 mph - N/A Rain Light Rain
11:58 PM 60.3 °F 21.0 °F 22% 30.19 in 10.0 mi NNW 6.9 mph - 0.00 in   Overcast